Location: Unspecified
(0.0000°N, 0.0000°E)
Time: 07:28:25
(UTC+00:00)

Tiros 1 - All Passes

Search period start: 08 February 2023 00:00
Search period end: 18 February 2023 00:00
Orbit: 629 x 662 km, 48.4° (Epoch: 07 February)

Date Brightness Start Highest point End Pass type
(mag) Time Alt. Az. Time Alt. Az. Time Alt. Az.
08 Feb - 06:16:13 10° N 06:19:29 18° NE 06:22:46 10° E daylight
08 Feb - 07:57:08 10° WNW 08:01:28 35° SW 08:05:50 10° SSE daylight
08 Feb - 18:28:10 10° SSW 18:32:19 31° SE 18:36:24 10° ENE daylight
08 Feb - 20:10:59 10° W 20:14:17 19° NW 20:17:33 10° N visible
09 Feb - 06:40:10 10° NNW 06:44:49 59° NE 06:49:31 10° SE daylight
09 Feb - 08:25:24 10° WSW 08:26:53 11° SW 08:28:22 10° SSW daylight
09 Feb - 18:52:59 10° SW 18:57:38 75° NW 19:02:14 10° NE visible
10 Feb - 05:25:17 10° NNE 05:28:08 16° NE 05:30:59 10° E visible
10 Feb - 07:05:40 10° WNW 07:10:07 41° SW 07:14:37 10° SSE daylight
10 Feb - 17:37:01 10° S 17:40:59 27° SE 17:44:54 10° ENE daylight
10 Feb - 19:19:20 10° WSW 19:22:57 22° NW 19:26:32 10° N visible
11 Feb - 05:48:55 10° NNW 05:53:29 49° NE 05:58:05 10° SE visible
11 Feb - 07:33:16 10° WSW 07:35:31 13° SW 07:37:47 10° SSW daylight
11 Feb - 18:01:37 10° SW 18:06:18 88° NW 18:10:55 10° NE daylight
12 Feb - 04:34:28 10° NNE 04:36:46 13° NE 04:39:04 10° E visible
12 Feb - 06:14:14 10° NW 06:18:46 48° SW 06:23:22 10° SSE daylight
12 Feb - 16:45:53 10° S 16:49:38 23° SE 16:53:20 10° ENE daylight
12 Feb - 18:27:43 10° WSW 18:31:36 26° NW 18:35:26 10° N daylight
13 Feb - 04:57:41 10° NNW 05:02:07 42° NE 05:06:37 10° ESE visible
13 Feb - 06:41:22 10° W 06:44:09 15° SW 06:46:57 10° SSW daylight
13 Feb - 17:10:16 10° SW 17:14:57 79° SE 17:19:35 10° NE daylight
14 Feb - 03:43:56 10° NNE 03:45:24 11° NE 03:46:53 10° ENE visible
14 Feb - 05:22:48 10° NW 05:27:25 56° SW 05:32:05 10° SSE visible
14 Feb - 15:54:47 10° S 15:58:16 20° SE 16:01:43 10° E daylight
14 Feb - 17:36:09 10° WSW 17:40:15 30° NW 17:44:19 10° N daylight
15 Feb - 04:06:29 10° NNW 04:10:46 36° NE 04:15:06 10° ESE visible
15 Feb - 05:49:35 10° W 05:52:46 18° SW 05:55:59 10° S visible
15 Feb - 16:18:56 10° SSW 16:23:36 67° SE 16:28:13 10° NE daylight
16 Feb - 04:31:23 10° NW 04:36:02 67° SW 04:40:45 10° SSE visible
16 Feb - 15:03:44 10° S 15:06:53 18° SE 15:10:01 10° E daylight
16 Feb - 16:44:35 10° WSW 16:48:53 35° NW 16:53:08 10° NNE daylight
17 Feb - 03:15:17 10° N 03:19:24 30° NE 03:23:33 10° ESE visible
17 Feb - 04:57:53 10° W 05:01:22 21° SW 05:04:55 10° S visible
17 Feb - 15:27:36 10° SSW 15:32:14 56° SE 15:36:48 10° NE daylight
17 Feb - 17:12:51 10° WNW 17:14:14 11° NW 17:15:37 10° NNW daylight
